Погода в Мошенском

Россия / Новгородская область     58°30′44″N   34°34′51″E
темп.,
°C
ветер,
м/с
пор.,
м/с
влажн.,
%
обл.,
%
осадки,
мм/ч
давл.,
гПа
погр.,
м
6 марта, сб
сб600:00−9зсз249692 0.1 1014140
03:00−10зсз249795 0.1 1016114
06:00−11зсз259785 0.1 1015158
09:00−10зсз269484 0.1 1016280
12:00−6з358199 0.1 1015688
15:00−5зюз4675100 0.1 10131033
18:00−6юз3108094 0.0 1010390
21:00−6ююз5137996 0.1 1005910
7 марта, вс
вс700:00−5ююз71493100 1.4 9981140
03:00−3юз61394100 3.3 9931085
06:00−3юз61295100 1.6 989979
09:00−4зсз41181100 3.2 9871197
12:00−4сз3677100 0.1 9881036
15:00−5зсз61076100 1.8 9901304
18:00−8зсз238177 0.1 99138
21:00−11сз278882 0.1 992148
8 марта, пн
пн800:00−11сз3118949 0.0 993415
03:00−9сз5109374 0.3 996631
06:00−9с51091100 0.6 998765
09:00−11с51089100 0.8 1002734
12:00−10с4884100 0.1 1005640
15:00−9ссз4784100 0.1 1008700
18:00−12ссз4990100 0.1 1010552
21:00−15с3995100 0.1 1013352
9 марта, вт
вт900:00−19с269771 0.0 1015176
03:00−22ссз249735 0.0 1017104
06:00−23ссз23970 0.0 101970
09:00−22ссз24930 0.0 1020224
12:00−16с247732 0.0 1021486
15:00−13с237017 0.0 1021739
18:00−16ссв22870 0.0 102121
21:00−20всв22930 0.0 102320
10 марта, ср
ср1000:00−21в22950 0.0 102420
03:00−23в12950 0.0 102520
06:00−24в12930 0.0 102620
09:00−21всв12870 0.0 1027115
12:00−14в12710 0.0 1027387
15:00−14всв236510 0.0 1026683
18:00−16всв128329 0.0 102620
21:00−20вюв129147 0.0 102720